| time (UTC) | temp F | wind direction | speed MPH | gust MPH | rain 1hr in | rain 24hr in | rain mn in | humidity % | barometer mb |
| 20260508001020 | 47 | 0.0 | 0.0 | 0.00 | 0.08 | 0.00 | 88 | 1010.1 | |
| 20260508000152 | 47 | 0.0 | 0.0 | 0.00 | 0.08 | 0.00 | 88 | 1010.2 | |
| 20260507235113 | 47 | 0.0 | 0.0 | 0.00 | 0.08 | 0.00 | 88 | 1010.1 | |
| 20260507234108 | 47 | 0.0 | 0.0 | 0.00 | 0.08 | 0.00 | 88 | 1010.1 | |
| 20260507233103 | 47 | 0.0 | 0.0 | 0.00 | 0.08 | 0.00 | 88 | 1010.2 | |
| 20260507231058 | 47 | 0.0 | 0.0 | 0.00 | 0.08 | 0.00 | 87 | 1010.2 | |
| 20260507225116 | 47 | 0.0 | 0.0 | 0.00 | 0.08 | 0.00 | 87 | 1010.2 | |
| 20260507194057 | 48 | 0.0 | 0.0 | 0.00 | 0.08 | 0.08 | 83 | 1009.1 | |
| 20260507193135 | 48 | 0.0 | 0.0 | 0.00 | 0.08 | 0.08 | 83 | 1009.2 | |
| 20260507192120 | 48 | 0.0 | 0.0 | 0.00 | 0.08 | 0.08 | 83 | 1009.2 | |
| 20260507191030 | 48 | 0.0 | 0.0 | 0.00 | 0.08 | 0.08 | 82 | 1008.9 | |
| 20260507190046 | 49 | 0.0 | 0.0 | 0.00 | 0.08 | 0.08 | 82 | 1008.9 | |
| 20260507185025 | 49 | 0.0 | 0.0 | 0.00 | 0.08 | 0.08 | 82 | 1008.7 | |
| 20260507184017 | 49 | 0.0 | 0.0 | 0.00 | 0.08 | 0.08 | 82 | 1008.7 | |
| 20260507183115 | 49 | 0.0 | 0.0 | 0.00 | 0.08 | 0.08 | 82 | 1008.8 | |
| 20260507182121 | 49 | 0.0 | 0.0 | 0.00 | 0.08 | 0.08 | 81 | 1008.5 | |
| 20260507181108 | 49 | 0.0 | 0.0 | 0.00 | 0.08 | 0.08 | 81 | 1008.3 | |
| 20260507180117 | 49 | 0.0 | 0.0 | 0.00 | 0.08 | 0.08 | 81 | 1008.3 | |
| 20260507175101 | 49 | 0.0 | 0.0 | 0.00 | 0.08 | 0.08 | 81 | 1008.1 | |
| 20260507174056 | 49 | 0.0 | 0.0 | 0.00 | 0.08 | 0.08 | 81 | 1008.0 | |
| 20260507173110 | 50 | 0.0 | 0.0 | 0.00 | 0.08 | 0.08 | 81 | 1007.9 | |
| 20260507172108 | 50 | 0.0 | 0.0 | 0.00 | 0.08 | 0.08 | 81 | 1007.7 | |
| 20260507171205 | 50 | 0.0 | 0.0 | 0.00 | 0.08 | 0.08 | 81 | 1007.5 | |
| 20260507170041 | 50 | 0.0 | 0.0 | 0.00 | 0.08 | 0.08 | 80 | 1007.5 | |
| 20260507165039 | 50 | 0.0 | 0.0 | 0.00 | 0.08 | 0.08 | 80 | 1007.4 | |
| 20260507164036 | 50 | 0.0 | 0.0 | 0.00 | 0.08 | 0.08 | 80 | 1007.3 | |
| 20260507163030 | 51 | 0.0 | 0.0 | 0.00 | 0.08 | 0.08 | 80 | 1007.4 | |
| 20260507162028 | 51 | 0.0 | 0.0 | 0.00 | 0.08 | 0.08 | 81 | 1007.2 | |
| 20260507161024 | 50 | 0.0 | 0.0 | 0.00 | 0.08 | 0.08 | 81 | 1007.3 | |
| 20260507160021 | 50 | 0.0 | 0.0 | 0.00 | 0.08 | 0.08 | 81 | 1007.3 | |
| 20260507155036 | 50 | 0.0 | 0.0 | 0.00 | 0.08 | 0.08 | 82 | 1007.5 | |
| 20260507154114 | 51 | 0.0 | 0.0 | 0.00 | 0.08 | 0.08 | 82 | 1007.5 | |
| 20260507153109 | 50 | 0.0 | 0.0 | 0.00 | 0.08 | 0.08 | 82 | 1007.4 | |
| 20260507152106 | 50 | 0.0 | 0.0 | 0.00 | 0.08 | 0.08 | 83 | 1007.3 | |
| 20260507151102 | 50 | 0.0 | 0.0 | 0.00 | 0.08 | 0.08 | 83 | 1007.3 | |
| 20260507150058 | 50 | 0.0 | 0.0 | 0.00 | 0.08 | 0.08 | 83 | 1007.2 | |
| 20260507145055 | 50 | 0.0 | 0.0 | 0.00 | 0.08 | 0.08 | 83 | 1007.2 | |
| 20260507144050 | 50 | 0.0 | 0.0 | 0.00 | 0.08 | 0.08 | 83 | 1007.1 | |
| 20260507143046 | 50 | 0.0 | 0.0 | 0.00 | 0.08 | 0.08 | 84 | 1007.3 | |
| 20260507142043 | 50 | 0.0 | 0.0 | 0.00 | 0.08 | 0.08 | 84 | 1007.4 | |
| 20260507141041 | 50 | 0.0 | 0.0 | 0.00 | 0.08 | 0.08 | 84 | 1007.2 | |
| 20260507140037 | 49 | 0.0 | 0.0 | 0.01 | 0.08 | 0.08 | 85 | 1007.1 | |
| 20260507135032 | 50 | 0.0 | 0.0 | 0.01 | 0.08 | 0.08 | 85 | 1007.2 | |
| 20260507134051 | 49 | 0.0 | 0.0 | 0.01 | 0.08 | 0.08 | 85 | 1007.1 | |
| 20260507133023 | 50 | 0.0 | 0.0 | 0.01 | 0.08 | 0.08 | 86 | 1007.0 | |
| 20260507132019 | 50 | 0.0 | 0.0 | 0.01 | 0.08 | 0.08 | 86 | 1006.9 | |
| 20260507131018 | 50 | 0.0 | 0.0 | 0.01 | 0.08 | 0.08 | 86 | 1006.9 | |
| 20260507130113 | 50 | 0.0 | 0.0 | 0.00 | 0.07 | 0.07 | 86 | 1006.7 | |
| 20260507125130 | 50 | 0.0 | 0.0 | 0.00 | 0.07 | 0.07 | 86 | 1006.8 | |
| 20260507124107 | 50 | 0.0 | 0.0 | 0.00 | 0.07 | 0.07 | 85 | 1006.6 | |
| 20260507123102 | 50 | 0.0 | 0.0 | 0.00 | 0.07 | 0.07 | 85 | 1006.6 | |
| 20260507122101 | 50 | 0.0 | 0.0 | 0.00 | 0.07 | 0.07 | 85 | 1006.5 | |
| 20260507121056 | 50 | 0.0 | 0.0 | 0.00 | 0.07 | 0.07 | 83 | 1006.4 | |
| 20260507120052 | 50 | 0.0 | 0.0 | 0.00 | 0.07 | 0.07 | 82 | 1006.5 | |
| 20260507115051 | 50 | 0.0 | 0.0 | 0.00 | 0.07 | 0.07 | 82 | 1006.5 | |
| 20260507114045 | 50 | 0.0 | 0.0 | 0.00 | 0.07 | 0.07 | 81 | 1006.4 | |
| 20260507113041 | 51 | 0.0 | 0.0 | 0.00 | 0.07 | 0.07 | 82 | 1006.3 | |
| 20260507112037 | 51 | 0.0 | 0.0 | 0.00 | 0.07 | 0.07 | 82 | 1006.2 | |
| 20260507111054 | 51 | 0.0 | 0.0 | 0.00 | 0.07 | 0.07 | 83 | 1006.1 | |
| 20260507110030 | 51 | 0.0 | 0.0 | 0.00 | 0.07 | 0.07 | 83 | 1006.0 | |
| 20260507105027 | 51 | 0.0 | 0.0 | 0.00 | 0.07 | 0.07 | 84 | 1005.9 | |
| 20260507104106 | 51 | 0.0 | 0.0 | 0.00 | 0.07 | 0.07 | 85 | 1005.9 | |
| 20260507103021 | 51 | 0.0 | 0.0 | 0.00 | 0.07 | 0.07 | 87 | 1005.8 | |
| 20260507102016 | 50 | 0.0 | 0.0 | 0.00 | 0.07 | 0.07 | 88 | 1005.7 | |
| 20260507101113 | 50 | 0.0 | 0.0 | 0.01 | 0.07 | 0.07 | 89 | 1005.6 | |
| 20260507100110 | 50 | 0.0 | 0.0 | 0.01 | 0.07 | 0.07 | 88 | 1005.6 | |
| 20260507095107 | 49 | 0.0 | 0.0 | 0.01 | 0.07 | 0.07 | 88 | 1005.6 | |
| 20260507094103 | 49 | 0.0 | 0.0 | 0.01 | 0.07 | 0.07 | 88 | 1005.5 | |
| 20260507093102 | 49 | 0.0 | 0.0 | 0.01 | 0.07 | 0.07 | 87 | 1005.5 | |
| 20260507092055 | 49 | 0.0 | 0.0 | 0.01 | 0.07 | 0.07 | 87 | 1005.3 | |
| 20260507091114 | 49 | 0.0 | 0.0 | 0.00 | 0.06 | 0.06 | 87 | 1005.2 | |
| 20260507090051 | 49 | 0.0 | 0.0 | 0.01 | 0.06 | 0.06 | 87 | 1005.1 | |
| 20260507085042 | 49 | 0.0 | 0.0 | 0.01 | 0.06 | 0.06 | 87 | 1004.8 | |
| 20260507084041 | 48 | 0.0 | 0.0 | 0.02 | 0.06 | 0.06 | 87 | 1004.8 | |
| 20260507083037 | 49 | 0.0 | 0.0 | 0.04 | 0.06 | 0.06 | 87 | 1004.7 | |
| 20260507082034 | 48 | 0.0 | 0.0 | 0.04 | 0.06 | 0.06 | 86 | 1004.5 | |
| 20260507081029 | 48 | 0.0 | 0.0 | 0.04 | 0.06 | 0.06 | 86 | 1004.4 | |
| 20260507080025 | 48 | 0.0 | 0.0 | 0.02 | 0.05 | 0.05 | 85 | 1004.2 | |
| 20260507075024 | 48 | 0.0 | 0.0 | 0.02 | 0.05 | 0.05 | 85 | 1004.2 | |
| 20260507074018 | 48 | 0.0 | 0.0 | 0.01 | 0.04 | 0.04 | 85 | 1003.9 | |
| 20260507073114 | 48 | 0.0 | 0.0 | 0.00 | 0.02 | 0.02 | 86 | 1003.9 | |
| 20260507072113 | 48 | 0.0 | 0.0 | 0.00 | 0.02 | 0.02 | 87 | 1003.8 | |
| 20260507071107 | 48 | 0.0 | 0.0 | 0.00 | 0.02 | 0.02 | 87 | 1003.7 | |
| 20260507070145 | 48 | 0.0 | 0.0 | 0.00 | 0.02 | 0.02 | 88 | 1003.6 | |
| 20260507065101 | 48 | 0.0 | 0.0 | 0.00 | 0.02 | 0.02 | 88 | 1003.7 | |
| 20260507064116 | 48 | 0.0 | 0.0 | 0.00 | 0.02 | 0.02 | 87 | 1003.7 | |
| 20260507063114 | 48 | 0.0 | 0.0 | 0.00 | 0.02 | 0.02 | 87 | 1003.6 | |
| 20260507062110 | 48 | 0.0 | 0.0 | 0.00 | 0.02 | 0.02 | 87 | 1003.5 | |
| 20260507061048 | 48 | 0.0 | 0.0 | 0.01 | 0.02 | 0.02 | 87 | 1003.3 | |
| 20260507060043 | 48 | 0.0 | 0.0 | 0.02 | 0.02 | 0.02 | 87 | 1003.2 | |
| 20260507055039 | 48 | 0.0 | 0.0 | 0.02 | 0.02 | 0.02 | 87 | 1003.1 | |
| 20260507054056 | 48 | 0.0 | 0.0 | 0.02 | 0.02 | 0.02 | 87 | 1003.1 | |
| 20260507053033 | 47 | 0.0 | 0.0 | 0.02 | 0.02 | 0.02 | 86 | 1003.0 | |
| 20260507052049 | 47 | 0.0 | 0.0 | 0.02 | 0.02 | 0.02 | 85 | 1002.9 | |
| 20260507051047 | 47 | 0.0 | 0.0 | 0.01 | 0.01 | 0.01 | 85 | 1002.9 | |
| 20260507050023 | 47 | 0.0 | 0.0 | 0.00 | 0.00 | 0.00 | 85 | 1002.9 | |
| 20260507045019 | 47 | 0.0 | 0.0 | 0.00 | 0.00 | 0.00 | 84 | 1002.6 | |
| 20260507044114 | 47 | 0.0 | 0.0 | 0.00 | 0.00 | 0.00 | 84 | 1002.6 | |
| 20260507043111 | 47 | 0.0 | 0.0 | 0.00 | 0.00 | 0.00 | 84 | 1002.6 | |
| 20260507042108 | 48 | 0.0 | 0.0 | 0.00 | 0.00 | 0.00 | 83 | 1002.7 | |
| 20260507041103 | 48 | 0.0 | 0.0 | 0.00 | 0.00 | 0.00 | 82 | 1002.6 | |
| 20260507040100 | 48 | 0.0 | 0.0 | 0.00 | 0.00 | 0.00 | 82 | 1002.6 | |
| 20260507035058 | 48 | 0.0 | 0.0 | 0.00 | 0.00 | 0.00 | 82 | 1002.4 | |
| 20260507034053 | 49 | 0.0 | 0.0 | 0.00 | 0.00 | 0.00 | 82 | 1002.5 | |
| 20260507033048 | 49 | 0.0 | 0.0 | 0.00 | 0.00 | 0.00 | 82 | 1002.4 | |
| 20260507032047 | 49 | 0.0 | 0.0 | 0.00 | 0.00 | 0.00 | 82 | 1002.2 | |
| 20260507031042 | 49 | 0.0 | 0.0 | 0.00 | 0.00 | 0.00 | 82 | 1002.0 | |
| 20260507030039 | 49 | 0.0 | 0.0 | 0.00 | 0.00 | 0.00 | 82 | 1001.8 | |
| 20260507025054 | 49 | 0.0 | 0.0 | 0.00 | 0.00 | 0.00 | 82 | 1001.9 | |
| 20260507024031 | 49 | 0.0 | 0.0 | 0.00 | 0.00 | 0.00 | 82 | 1001.8 | |
| 20260507023027 | 49 | 0.0 | 0.0 | 0.00 | 0.00 | 0.00 | 81 | 1001.7 | |
| 20260507022024 | 50 | 0.0 | 0.0 | 0.00 | 0.00 | 0.00 | 81 | 1001.7 | |
| 20260507021022 | 50 | 0.0 | 0.0 | 0.00 | 0.00 | 0.00 | 81 | 1001.6 | |
| 20260507020016 | 50 | 0.0 | 0.0 | 0.00 | 0.00 | 0.00 | 80 | 1001.5 | |
| 20260507015113 | 51 | 0.0 | 0.0 | 0.00 | 0.00 | 0.00 | 80 | 1001.5 | |
| 20260507014109 | 51 | 0.0 | 0.0 | 0.00 | 0.00 | 0.00 | 80 | 1001.4 | |
| 20260507013106 | 51 | 0.0 | 0.0 | 0.00 | 0.00 | 0.00 | 80 | 1001.4 | |
| 20260507012103 | 51 | 0.0 | 0.0 | 0.00 | 0.00 | 0.00 | 80 | 1001.4 | |
| 20260507011100 | 51 | 0.0 | 0.0 | 0.00 | 0.00 | 0.00 | 80 | 1001.4 | |
| 20260507010056 | 51 | 0.0 | 0.0 | 0.00 | 0.00 | 0.00 | 80 | 1001.4 | |
| 20260507005052 | 51 | 0.0 | 0.0 | 0.00 | 0.00 | 0.00 | 79 | 1001.2 | |
| 20260507004048 | 51 | 0.0 | 0.0 | 0.00 | 0.00 | 0.00 | 79 | 1001.3 | |
| 20260507003046 | 51 | 0.0 | 0.0 | 0.00 | 0.00 | 0.00 | 79 | 1001.1 |